This is the latest recevied weather packets stored in our database for station/object OK1FPA-15. If no packets are shown the sender has not sent any weather packets the latest 10 day(s).
| Time | Temp. | Humidity | Pressure | Rain* | Wind** | Luminosity | Snow |
|---|---|---|---|---|---|---|---|
| 1777819655 | 26.67° C | 22% | 1012.5 hPa | - | - | - | - |
| 1777819055 | 26.67° C | 22% | 1012.7 hPa | - | - | - | - |
| 1777818456 | 26.67° C | 24% | 1012.8 hPa | - | - | - | - |
| 1777817855 | 26.67° C | 25% | 1013 hPa | - | - | - | - |
| 1777817255 | 26.67° C | 25% | 1013.1 hPa | - | - | - | - |
| 1777816655 | 26.11° C | 23% | 1013.3 hPa | - | - | - | - |
| 1777816055 | 26.67° C | 24% | 1013.5 hPa | - | - | - | - |
| 1777815455 | 26.67° C | 24% | 1013.6 hPa | - | - | - | - |
| 1777814856 | 26.67° C | 25% | 1013.7 hPa | - | - | - | - |
| 1777814255 | 26.11° C | 25% | 1014 hPa | - | - | - | - |
| 1777813655 | 26.11° C | 27% | 1014.2 hPa | - | - | - | - |
| 1777813055 | 26.11° C | 26% | 1014.2 hPa | - | - | - | - |
| 1777812455 | 26.11° C | 26% | 1014.4 hPa | - | - | - | - |
| 1777811855 | 26.11° C | 26% | 1014.6 hPa | - | - | - | - |
| 1777811255 | 26.11° C | 25% | 1014.7 hPa | - | - | - | - |
| 1777810655 | 25.56° C | 25% | 1014.7 hPa | - | - | - | - |
| 1777810055 | 26.11° C | 25% | 1014.9 hPa | - | - | - | - |
| 1777809455 | 25.56° C | 25% | 1015 hPa | - | - | - | - |
| 1777808858 | 25.56° C | 26% | 1015.1 hPa | - | - | - | - |
| 1777808253 | 25.56° C | 25% | 1015.2 hPa | - | - | - | - |
| 1777807653 | 25.56° C | 27% | 1015.4 hPa | - | - | - | - |
| 1777807053 | 25° C | 28% | 1015.6 hPa | - | - | - | - |
| 1777806453 | 25° C | 28% | 1015.7 hPa | - | - | - | - |
| 1777805853 | 25° C | 26% | 1015.8 hPa | - | - | - | - |
| 1777805254 | 24.44° C | 27% | 1015.9 hPa | - | - | - | - |
* Rain since midnight (hover to see other rain measurements)
** Current wind speed in m/s (hover to see current wind gust speed)